Regional Weather Roundup
Issued by NWS Tiyan, Guam

Home | Current Version | Previous Version | Text Only | Print | Product List | Glossary On
Versions: 1 2 3 4 5 6 7 8 9 10 11 12 13 14 15 16 17 18 19 20 21 22 23 24 25 26 27 28 29 30 31 32 33 34 35 36 37 38 39 40 41 42 43 44 45 46 47 48 49 50
000
ASGM40 PGUM 222212
RWRGUM
WEATHER ROUNDUP FOR THE MARIANAS
NATIONAL WEATHER SERVICE TIYAN GU
800 AM CHST MON JAN 23 2017

GUZ001>004-222300-
MARIANA ISLANDS-

CITY           SKY/WX    TMP DP  RH WIND       PRES   REMARKS
GUAM AIRPORT   MOSUNNY   81  73  78 NE14      30.02R
ANDERSEN AFB   MOSUNNY   79  72  78 NE21      30.03R
ROTA AIRPORT   MOSUNNY   79  72  78 N12G21    30.03R
TINIAN AP      MOSUNNY   79  72  78 N9        30.02R
SAIPAN AP      MOSUNNY   79  72  78 NE16      30.03R

$$




USA.gov is the U.S. government's official web portal to all federal, state and local government web resources and services.